[[{"header":{"parameterUnit":"m.s-1","parameterCategory":2,"la1":30.2991,"la2":30.254,"lo1":-89.0895,"lo2":-89.0444,"dy":0.0017,"dx":0.0017,"nx":28,"ny":28,"refTime":"2024-04-15T21:00:00:Z","depth":"0","parameterNumber":2,"parameterNumberName":"U-component_of_CURRENTS"},"data":[0,0,0,0,0,0,0,0,0,0,0,0,0,0,0,0,0,0,0,0,0,0,0,0,0,0,0,0,0,0,0,0,0,0,0,0,0,0,0,0,0,0,0,0,0,0,0,0,0,0,0,0,0,0,0,0,0,0,-0.392,-0.392,0,-0.3978,-0.3979,-0.3979,-0.398,-0.3979,-0.3979,-0.3978,-0.4009,-0.4011,-0.4012,0,0,0,0,0,0,0,0,0,0,0,0,0,-0.3783,-0.3786,-0.392,-0.392,-0.3921,-0.3978,-0.3979,-0.3979,-0.398,-0.3979,-0.3979,-0.3978,-0.4009,-0.4011,-0.4012,0,0,0,0,0,0,0,0,0,0,0,0,0,-0.3842,-0.3787,-0.3919,-0.3929,-0.393,-0.3978,-0.3979,-0.398,-0.398,-0.3979,-0.3978,-0.3977,-0.4008,-0.401,-0.4013,-0.4047,0,0,-0.4019,-0.402,0,0,0,0,0,0,0,0,-0.3839,-0.3847,-0.3927,-0.3928,-0.393,-0.3971,-0.3942,-0.4001,-0.3981,-0.3961,-0.3978,-0.3977,-0.3995,-0.3998,-0.4011,-0.4049,-0.405,-0.402,-0.4021,-0.4022,-0.4023,0,0,0,0,0,0,0,-0.3835,-0.3844,-0.3942,-0.3928,-0.393,-0.3921,-0.3929,-0.3953,-0.3982,-0.3963,-0.3963,-0.397,-0.3996,-0.4009,-0.4012,-0.405,-0.402,-0.4022,-0.4023,-0.4024,-0.4043,-0.4042,0,0,0,0,0,0,-0.3831,-0.3841,-0.394,-0.3944,-0.3881,-0.3925,-0.3933,-0.3959,-0.3983,-0.3986,-0.3971,-0.397,-0.4006,-0.4009,-0.4013,-0.3961,-0.4022,-0.4024,-0.4025,-0.4044,-0.4043,-0.4042,0,0,0,0,0,0,-0.3829,-0.3841,-0.3938,-0.3892,-0.3904,-0.3928,-0.3957,-0.396,-0.3967,-0.399,-0.3992,-0.3974,-0.4005,-0.401,-0.4021,-0.3966,-0.4025,-0.4027,-0.4045,-0.4044,-0.4042,-0.3918,0,0,0,0,0,0,-0.3825,-0.384,-0.3856,-0.3893,-0.3907,-0.3953,-0.3958,-0.3962,-0.3974,-0.3973,-0.3993,-0.3995,-0.4005,-0.4018,-0.4023,-0.397,-0.4029,-0.4046,-0.4044,-0.4043,-0.3923,-0.3913,-0.3904,0,0,0,0,0,-0.382,-0.3831,-0.3857,-0.3868,-0.393,-0.3953,-0.3958,-0.3971,-0.3975,-0.3974,-0.3986,-0.3994,-0.4011,-0.402,-0.4026,-0.3972,-0.4047,-0.4045,-0.4043,-0.3928,-0.3915,-0.3904,0,0,0,0,0,0,-0.3755,-0.3834,-0.3862,-0.3892,-0.392,-0.3952,-0.3948,-0.397,-0.3983,-0.3978,-0.3999,-0.4002,-0.3983,-0.4013,-0.4022,-0.3976,-0.4025,-0.4024,-0.3935,-0.3923,-0.3913,-0.383,-0.4031,0,0,0,0,0,-0.3759,-0.3802,-0.3857,-0.3876,-0.3888,-0.3923,-0.3935,-0.395,-0.3968,-0.3973,-0.3989,-0.3997,-0.3984,-0.3983,-0.3991,-0.3983,-0.3968,-0.3951,-0.3941,-0.3933,-0.3871,-0.3816,-0.3793,-0.4036,-0.4036,-0.4036,0,0,-0.3737,-0.3786,-0.3808,-0.3868,-0.3886,-0.3866,-0.3925,-0.3937,-0.3902,-0.3975,-0.3936,-0.397,-0.3978,-0.3949,-0.3943,-0.3964,-0.3865,-0.393,-0.3922,-0.3864,-0.3811,-0.3787,-0.3765,-0.4035,-0.4035,-0.4035,0,0,-0.3673,-0.3757,-0.3747,-0.3772,-0.3809,-0.3834,-0.3835,-0.3874,-0.3871,-0.3874,-0.3887,-0.3876,-0.3909,-0.3864,-0.3852,-0.3798,-0.3818,-0.3831,-0.3705,-0.3653,-0.3631,-0.3611,-0.3589,-0.3568,-0.3822,-0.3822,-0.3822,0,-0.3637,-0.3636,-0.374,-0.3717,-0.3714,-0.3806,-0.3755,-0.3769,-0.3804,-0.3792,-0.3843,-0.3826,-0.3837,-0.3741,-0.3711,-0.3762,-0.3765,-0.3745,-0.3634,-0.3614,-0.3596,-0.3578,-0.3556,-0.3816,-0.3816,-0.3817,-0.3817,0,-0.3541,-0.3543,-0.3531,-0.3541,-0.3561,-0.3542,-0.3581,-0.3595,-0.3631,-0.3646,-0.361,-0.3637,-0.362,-0.3624,-0.3643,-0.3518,-0.3575,-0.3629,-0.365,-0.3563,-0.3552,-0.3531,-0.3807,-0.3809,-0.3811,-0.3812,0,0,-0.3421,-0.3458,-0.3444,-0.3434,-0.3467,-0.3479,-0.3431,-0.3418,-0.3402,-0.3429,-0.3379,-0.3334,-0.3387,-0.3373,-0.3407,-0.3344,-0.3228,-0.3423,-0.3423,-0.3375,-0.3139,-0.3083,-0.3057,-0.328,-0.3275,-0.3271,-0.3192,0,-0.3288,-0.3226,-0.3274,-0.3202,-0.317,-0.3253,-0.3218,-0.3236,-0.3276,-0.3273,-0.3263,-0.3255,-0.3281,-0.3302,-0.3224,-0.326,-0.3165,-0.3245,-0.325,-0.3249,-0.3188,-0.3025,-0.2887,-0.2795,-0.3172,-0.3169,-0.3167,0,-0.312,-0.3127,-0.3034,-0.3067,-0.3061,-0.3038,-0.3051,-0.3043,-0.3059,-0.3097,-0.3073,-0.3125,-0.3033,-0.3097,-0.2996,-0.3065,-0.3045,-0.3054,-0.3053,-0.3009,-0.315,-0.2941,-0.2744,-0.2726,-0.3136,-0.3138,-0.314,0,-0.296,-0.2938,-0.2873,-0.2876,-0.2927,-0.2905,-0.2936,-0.2971,-0.299,-0.2992,-0.303,-0.2959,-0.2974,-0.2904,-0.2926,-0.2966,-0.2841,-0.2919,-0.2821,-0.2823,-0.2697,-0.2693,-0.2443,-0.2759,-0.2759,-0.276,-0.276,0,-0.2778,-0.2728,-0.2806,-0.2779,-0.275,-0.2816,-0.2798,-0.2836,-0.2883,-0.2892,-0.2935,-0.2928,-0.2928,-0.2898,-0.2872,-0.2779,-0.2793,-0.2718,-0.2754,-0.2658,-0.2651,-0.263,-0.2696,-0.2757,-0.2757,-0.2758,-0.2758,0,-0.2591,-0.262,-0.2587,-0.265,-0.2669,-0.2661,-0.2753,-0.276,-0.2825,-0.2837,-0.2841,-0.2897,-0.2852,-0.2843,-0.2772,-0.2729,-0.2593,-0.2602,-0.2502,-0.2521,-0.2392,-0.2459,-0.2261,-0.2202,-0.2448,-0.2445,-0.2443,0,-0.2482,-0.2439,-0.2511,-0.2517,-0.254,-0.2566,-0.2592,-0.2698,-0.2726,-0.2806,-0.2797,-0.2796,-0.2747,-0.2646,-0.256,-0.2451,-0.2478,-0.2279,-0.2268,-0.2272,-0.2376,-0.2443,-0.2415,-0.2087,-0.2083,-0.2079,-0.2075,0,-0.2305,-0.2337,-0.2339,-0.2371,-0.2394,-0.2435,-0.2483,-0.2507,-0.262,-0.2635,-0.2631,-0.2598,-0.2537,-0.2372,-0.2278,-0.2199,-0.2218,-0.2191,-0.2192,-0.2013,-0.2067,-0.2069,-0.2309,-0.204,-0.2043,-0.2046,-0.2048,-0.2049,-0.2179,-0.2165,-0.2184,-0.2197,-0.2237,-0.2254,-0.223,-0.2307,-0.2314,-0.2302,-0.2383,-0.2287,-0.2223,-0.2052,-0.1994,-0.1846,-0.1948,-0.1767,-0.1837,-0.1897,-0.1825,-0.1983,-0.1767,-0.1769,-0.1771,-0.1772,-0.1773,0,-0.201,-0.2008,-0.2015,-0.2032,-0.202,-0.2092,-0.2114,-0.2039,-0.1987,-0.2025,-0.1976,-0.1885,-0.1748,-0.1729,-0.1613,-0.1523,-0.1507,-0.1488,-0.153,-0.1509,-0.1609,-0.1575,-0.1308,-0.1308,-0.1308,-0.1308,-0.1308,-0.1308,-0.1911,-0.1847,-0.1861,-0.1784,-0.1806,-0.1711,-0.1677,-0.158,-0.1539,-0.1419,-0.1405,-0.1401,-0.1479,-0.1593,-0.1488,-0.1402,-0.1399,-0.133,-0.141,-0.1487,-0.1519,-0.155,-0.1525,-0.1252,-0.1252,-0.1211,-0.1211,-0.1211]},{"header":{"parameterUnit":"m.s-1","parameterCategory":2,"la1":30.2991,"la2":30.254,"lo1":-89.0895,"lo2":-89.0444,"dy":0.0017,"dx":0.0017,"nx":28,"ny":28,"refTime":"2024-04-15T21:00:00:Z","depth":"0","parameterNumber":3,"parameterNumberName":"V-component_of_CURRENTS"},"data":[0,0,0,0,0,0,0,0,0,0,0,0,0,0,0,0,0,0,0,0,0,0,0,0,0,0,0,0,0,0,0,0,0,0,0,0,0,0,0,0,0,0,0,0,0,0,0,0,0,0,0,0,0,0,0,0,0,0,0.0068,0.007,0,0.0298,0.0302,0.0305,0.0485,0.0486,0.0487,0.0489,0.0804,0.0811,0.0818,0,0,0,0,0,0,0,0,0,0,0,0,0,-0.0115,-0.0113,0.0068,0.007,0.0073,0.0298,0.0302,0.0305,0.0485,0.0486,0.0488,0.0489,0.0802,0.081,0.0819,0,0,0,0,0,0,0,0,0,0,0,0,0,0.0029,-0.0112,0.0067,0.0186,0.0198,0.0297,0.0302,0.0306,0.0484,0.0486,0.0488,0.049,0.0799,0.081,0.082,0.0849,0,0,0.0853,0.0858,0,0,0,0,0,0,0,0,0.002,0.0036,0.0166,0.0177,0.0192,0.036,0.0353,0.049,0.0484,0.0381,0.0489,0.0491,0.0659,0.0681,0.0727,0.0864,0.0877,0.0854,0.0861,0.0865,0.0869,0,0,0,0,0,0,0,0.001,0.0028,0.0164,0.0168,0.0184,0.0261,0.0284,0.038,0.0512,0.039,0.0402,0.0419,0.0668,0.0716,0.0735,0.0882,0.0854,0.0864,0.087,0.0875,0.1037,0.1035,0,0,0,0,0,0,-0.0036,0.0018,0.0157,0.0171,0.0103,0.0262,0.0288,0.0308,0.051,0.054,0.0417,0.0427,0.0696,0.0723,0.0747,0.0779,0.0865,0.0876,0.0882,0.1039,0.1036,0.1034,0,0,0,0,0,0,-0.0041,-0.0026,0.0148,0.0095,0.0122,0.0262,0.0285,0.0312,0.0362,0.0528,0.0562,0.0439,0.0699,0.0732,0.0804,0.0793,0.088,0.089,0.1042,0.1038,0.1035,0.0851,0,0,0,0,0,0,-0.0047,-0.0029,-0.0032,0.0092,0.0123,0.0194,0.0284,0.0315,0.0367,0.0382,0.0558,0.0589,0.0703,0.0787,0.0815,0.081,0.0899,0.1044,0.104,0.1036,0.086,0.0842,0.0827,0,0,0,0,0,-0.0054,-0.0073,-0.0033,-0.0016,0.0115,0.0192,0.0216,0.0326,0.0365,0.0379,0.0477,0.0584,0.0781,0.0793,0.0827,0.0825,0.1046,0.1041,0.1037,0.0867,0.0845,0.0827,0,0,0,0,0,0,-0.0159,-0.0053,-0.0007,0.0007,0.0087,0.0221,0.0234,0.0306,0.0396,0.0405,0.056,0.0597,0.0654,0.0751,0.076,0.0854,0.093,0.0932,0.079,0.0771,0.0755,0.072,0.0908,0,0,0,0,0,-0.0188,-0.0169,-0.0057,-0.005,-0.0021,0.01,0.0142,0.0217,0.0311,0.0354,0.047,0.0578,0.0659,0.0721,0.081,0.0865,0.0927,0.0882,0.0865,0.0851,0.0842,0.0869,0.0854,0.1018,0.1018,0.1018,0,0,-0.023,-0.017,-0.016,-0.0071,-0.0004,0.0032,0.0132,0.018,0.0212,0.0371,0.0433,0.0522,0.0654,0.0711,0.0747,0.0796,0.0838,0.0844,0.0831,0.0831,0.0863,0.0847,0.0833,0.1015,0.1015,0.1016,0,0,-0.03,-0.0254,-0.0254,-0.0198,-0.0111,-0.0037,-0.0035,0.0088,0.0142,0.0207,0.0311,0.0376,0.0528,0.0608,0.067,0.061,0.0736,0.0646,0.0558,0.0584,0.0571,0.056,0.0623,0.0619,0.0652,0.0652,0.0652,0,-0.0355,-0.033,-0.0247,-0.0229,-0.0199,-0.0081,-0.0076,-0.0009,0.0121,0.0147,0.0201,0.0362,0.0476,0.053,0.0517,0.0575,0.0619,0.0626,0.0561,0.0551,0.0543,0.0611,0.0609,0.0642,0.0644,0.0645,0.0645,0,-0.0405,-0.0389,-0.0396,-0.0331,-0.0292,-0.0274,-0.0177,-0.0139,-0.0069,0.0009,0.0065,0.0195,0.0298,0.0336,0.0423,0.0422,0.0482,0.0522,0.0608,0.0515,0.0594,0.0595,0.0629,0.0632,0.0635,0.0637,0,0,-0.0511,-0.0443,-0.0444,-0.0432,-0.0344,-0.0318,-0.0297,-0.0234,-0.022,-0.012,-0.0097,0.0019,0.0088,0.0157,0.026,0.0292,0.0287,0.0378,0.0383,0.0434,0.0363,0.0456,0.0468,0.0308,0.0307,0.0306,0.0443,0,-0.0572,-0.0574,-0.0518,-0.0528,-0.0523,-0.0435,-0.042,-0.0356,-0.0283,-0.0232,-0.0134,-0.0064,0.0021,0.0072,0.0104,0.0255,0.028,0.0248,0.0452,0.0459,0.0546,0.0468,0.0506,0.0635,0.0445,0.0446,0.0446,0,-0.0624,-0.0621,-0.0641,-0.0615,-0.0608,-0.0597,-0.056,-0.0528,-0.0443,-0.0388,-0.0327,-0.0222,-0.014,-0.0067,0.0093,0.0068,0.0186,0.0288,0.0297,0.0448,0.0553,0.0697,0.0646,0.0804,0.045,0.0449,0.0449,0,-0.0715,-0.0705,-0.0729,-0.0717,-0.067,-0.0675,-0.0652,-0.0581,-0.0562,-0.0484,-0.0447,-0.0348,-0.0256,-0.0146,0.0094,0.0085,0.0277,0.03,0.0484,0.0495,0.0602,0.0624,0.0724,0.0366,0.0365,0.0365,0.0364,0,-0.0783,-0.0804,-0.0775,-0.0786,-0.0828,-0.0764,-0.0786,-0.0743,-0.0684,-0.0649,-0.0536,-0.0465,-0.0276,-0.0116,0.0049,0.0295,0.0246,0.0456,0.0521,0.0542,0.0555,0.0763,0.0836,0.037,0.0369,0.0368,0.0367,0,-0.086,-0.0836,-0.087,-0.086,-0.0864,-0.0892,-0.0876,-0.0878,-0.0809,-0.0758,-0.0733,-0.0547,-0.0316,-0.0106,0.0142,0.0276,0.0595,0.0573,0.061,0.0675,0.0964,0.1025,0.1209,0.1322,0.0767,0.077,0.0772,0,-0.089,-0.0912,-0.094,-0.0971,-0.0969,-0.0997,-0.1006,-0.0953,-0.0929,-0.0779,-0.0745,-0.0521,-0.0308,0.0086,0.0357,0.0648,0.0758,0.0833,0.0805,0.0976,0.1092,0.1118,0.12,0.0887,0.089,0.0893,0.0895,0,-0.0956,-0.0965,-0.0994,-0.1063,-0.1092,-0.1118,-0.111,-0.1106,-0.1,-0.0901,-0.0694,-0.0514,-0.0117,0.0262,0.0624,0.0782,0.0957,0.0895,0.1048,0.1166,0.1224,0.1367,0.0831,0.0918,0.0915,0.0914,0.0912,0.0911,-0.1001,-0.1048,-0.1085,-0.1147,-0.1184,-0.1191,-0.113,-0.1062,-0.0963,-0.0685,-0.0628,-0.0246,0.0168,0.0704,0.0899,0.1259,0.1199,0.1335,0.1391,0.1398,0.1506,0.1037,0.121,0.1209,0.1209,0.1208,0.1208,0,-0.1046,-0.1092,-0.1163,-0.1206,-0.1237,-0.1228,-0.1145,-0.098,-0.0745,-0.052,-0.0255,0.023,0.068,0.1071,0.1526,0.1726,0.1758,0.1807,0.1833,0.1892,0.1461,0.1465,0.1729,0.1729,0.1729,0.1729,0.1729,0.1728,-0.1069,-0.1142,-0.1179,-0.1228,-0.1235,-0.1098,-0.0991,-0.071,-0.0451,0.0026,0.0381,0.0616,0.1011,0.1667,0.2104,0.2143,0.2325,0.2293,0.2407,0.2089,0.2047,0.2008,0.2028,0.2406,0.2406,0.2809,0.2813,0.2816]}],[{"header":{"parameterUnit":"m.s-1","parameterCategory":2,"la1":30.2991,"la2":30.254,"lo1":-89.0895,"lo2":-89.0444,"dy":0.0017,"dx":0.0017,"nx":28,"ny":28,"refTime":"2024-04-15T21:00:00:Z","depth":"2","parameterNumber":2,"parameterNumberName":"U-component_of_CURRENTS"},"data":[0,0,0,0,0,0,0,0,0,0,0,0,0,0,0,0,0,0,0,0,0,0,0,0,0,0,0,0,0,0,0,0,0,0,0,0,0,0,0,0,0,0,0,0,0,0,0,0,0,0,0,0,0,0,0,0,0,0,-0.292,-0.2921,0,-0.2948,-0.2947,-0.2947,-0.2917,-0.2917,-0.2916,-0.2916,-0.2996,-0.2999,-0.3001,0,0,0,0,0,0,0,0,0,0,0,0,0,-0.2768,-0.277,-0.292,-0.2921,-0.2922,-0.2948,-0.2947,-0.2947,-0.2917,-0.2916,-0.2916,-0.2915,-0.2996,-0.2999,-0.3002,0,0,0,0,0,0,0,0,0,0,0,0,0,-0.2811,-0.2771,-0.292,-0.2916,-0.2917,-0.2948,-0.2947,-0.2947,-0.2917,-0.2916,-0.2916,-0.2915,-0.2995,-0.2998,-0.3002,-0.3038,0,0,-0.3014,-0.3015,0,0,0,0,0,0,0,0,-0.2809,-0.2816,-0.2916,-0.2917,-0.2917,-0.2935,-0.2924,-0.2983,-0.2917,-0.2909,-0.2916,-0.2915,-0.2987,-0.2991,-0.2986,-0.3042,-0.3046,-0.3014,-0.3016,-0.3018,-0.3019,0,0,0,0,0,0,0,-0.2806,-0.2814,-0.2923,-0.2917,-0.2918,-0.2888,-0.2894,-0.2933,-0.2946,-0.2909,-0.2909,-0.2925,-0.2986,-0.2982,-0.2988,-0.3047,-0.3014,-0.3017,-0.302,-0.3021,-0.3111,-0.3111,0,0,0,0,0,0,-0.2824,-0.2812,-0.2922,-0.2925,-0.2869,-0.2893,-0.2898,-0.2924,-0.2944,-0.2949,-0.2926,-0.2924,-0.2976,-0.2983,-0.2991,-0.3019,-0.3018,-0.3022,-0.3024,-0.3111,-0.3111,-0.3111,0,0,0,0,0,0,-0.282,-0.2834,-0.2921,-0.2874,-0.2884,-0.2897,-0.2925,-0.2925,-0.2938,-0.2957,-0.2961,-0.2942,-0.2975,-0.2985,-0.3043,-0.3023,-0.3023,-0.3027,-0.3111,-0.3111,-0.3111,-0.3088,0,0,0,0,0,0,-0.2816,-0.2832,-0.2842,-0.2876,-0.2888,-0.2944,-0.2927,-0.2926,-0.2951,-0.2949,-0.2973,-0.2978,-0.2976,-0.3038,-0.3047,-0.3028,-0.303,-0.3111,-0.3111,-0.3111,-0.3089,-0.3088,-0.3086,0,0,0,0,0,-0.2811,-0.2832,-0.2843,-0.2855,-0.2906,-0.2946,-0.2948,-0.2949,-0.2953,-0.2957,-0.2984,-0.2978,-0.3043,-0.3043,-0.3053,-0.3035,-0.3111,-0.3111,-0.3111,-0.3089,-0.3088,-0.3086,0,0,0,0,0,0,-0.2755,-0.2833,-0.2845,-0.2884,-0.2917,-0.2944,-0.295,-0.2966,-0.2989,-0.2989,-0.3008,-0.3015,-0.3044,-0.306,-0.3058,-0.3059,-0.3066,-0.3068,-0.3045,-0.3044,-0.3043,-0.2972,-0.3033,0,0,0,0,0,-0.2756,-0.2805,-0.2856,-0.2888,-0.2906,-0.2934,-0.2949,-0.2958,-0.2991,-0.2998,-0.3032,-0.3049,-0.3051,-0.3068,-0.308,-0.3113,-0.3089,-0.3099,-0.3098,-0.3097,-0.3046,-0.3015,-0.3005,-0.3112,-0.3112,-0.3112,0,0,-0.275,-0.2795,-0.2823,-0.2882,-0.2903,-0.2913,-0.2939,-0.297,-0.2962,-0.3009,-0.3027,-0.3059,-0.306,-0.307,-0.3083,-0.3085,-0.3062,-0.3097,-0.3096,-0.3045,-0.3014,-0.3003,-0.2993,-0.3112,-0.3112,-0.3112,0,0,-0.2737,-0.2797,-0.2814,-0.2847,-0.2892,-0.2911,-0.293,-0.298,-0.2978,-0.3009,-0.3025,-0.3041,-0.3086,-0.306,-0.3051,-0.3057,-0.3057,-0.3086,-0.3024,-0.2996,-0.2986,-0.2976,-0.2963,-0.2952,-0.3085,-0.3085,-0.3085,0,-0.2716,-0.2748,-0.2821,-0.2831,-0.2852,-0.2913,-0.2911,-0.2919,-0.2982,-0.2988,-0.3005,-0.3035,-0.3043,-0.3018,-0.3002,-0.3043,-0.3051,-0.3032,-0.2991,-0.2981,-0.2972,-0.296,-0.2948,-0.3084,-0.3084,-0.3084,-0.3084,0,-0.2695,-0.2726,-0.2742,-0.2779,-0.2807,-0.2831,-0.2862,-0.2892,-0.2916,-0.2926,-0.2936,-0.2952,-0.2962,-0.297,-0.2976,-0.293,-0.2968,-0.2994,-0.2988,-0.2959,-0.295,-0.2938,-0.3082,-0.3083,-0.3083,-0.3083,0,0,-0.2635,-0.2712,-0.2713,-0.2727,-0.2786,-0.281,-0.281,-0.2825,-0.2831,-0.2857,-0.2849,-0.2824,-0.2862,-0.2851,-0.2888,-0.2849,-0.2793,-0.2893,-0.2892,-0.2865,-0.2757,-0.2687,-0.2668,-0.2839,-0.2837,-0.2834,-0.2788,0,-0.2587,-0.2599,-0.2648,-0.2658,-0.2671,-0.2737,-0.2738,-0.2764,-0.2789,-0.281,-0.2792,-0.2803,-0.281,-0.2834,-0.2789,-0.2812,-0.2758,-0.2803,-0.2798,-0.2796,-0.2725,-0.2649,-0.2456,-0.2389,-0.2776,-0.2774,-0.2773,0,-0.252,-0.2553,-0.2548,-0.2617,-0.2627,-0.2635,-0.2678,-0.2689,-0.2719,-0.274,-0.2743,-0.2773,-0.2731,-0.274,-0.2686,-0.2736,-0.2711,-0.2705,-0.2705,-0.262,-0.2701,-0.2476,-0.2353,-0.2753,-0.2755,-0.2756,-0.2758,0,-0.2427,-0.2477,-0.2475,-0.2498,-0.2575,-0.2581,-0.2616,-0.2661,-0.2682,-0.2705,-0.2733,-0.2712,-0.2716,-0.2669,-0.2652,-0.2683,-0.259,-0.2641,-0.2539,-0.2538,-0.2349,-0.2334,-0.2536,-0.2536,-0.2536,-0.2536,-0.2536,0,-0.2354,-0.2355,-0.2436,-0.2443,-0.2455,-0.2523,-0.2538,-0.258,-0.2633,-0.2646,-0.2695,-0.2692,-0.2697,-0.267,-0.2635,-0.2542,-0.2573,-0.2473,-0.2492,-0.2342,-0.2327,-0.2623,-0.2634,-0.2534,-0.2535,-0.2535,-0.2535,0,-0.2244,-0.2294,-0.231,-0.2389,-0.2411,-0.2418,-0.2506,-0.2524,-0.259,-0.261,-0.2619,-0.2675,-0.2633,-0.2624,-0.2562,-0.2518,-0.2443,-0.2396,-0.2226,-0.2221,-0.2418,-0.2429,-0.2269,-0.2266,-0.2263,-0.226,-0.2258,0,-0.2182,-0.2178,-0.2259,-0.2273,-0.2305,-0.2343,-0.2374,-0.2475,-0.2504,-0.2578,-0.2574,-0.2577,-0.2524,-0.2434,-0.2348,-0.225,-0.234,-0.2037,-0.2012,-0.2341,-0.2377,-0.2393,-0.2407,-0.1781,-0.1775,-0.1771,-0.1767,0,-0.207,-0.21,-0.2121,-0.2161,-0.2193,-0.2234,-0.2286,-0.2306,-0.2407,-0.243,-0.2418,-0.238,-0.2314,-0.2123,-0.2036,-0.1958,-0.2041,-0.1937,-0.229,-0.1885,-0.1878,-0.1916,-0.1946,-0.1724,-0.1728,-0.1732,-0.1734,-0.1736,-0.197,-0.1966,-0.1997,-0.2019,-0.2064,-0.2075,-0.2038,-0.2114,-0.2121,-0.2097,-0.2176,-0.2052,-0.2031,-0.177,-0.1676,-0.1613,-0.1752,-0.1675,-0.1691,-0.1711,-0.1669,-0.1657,-0.1455,-0.1458,-0.146,-0.1462,-0.1464,0,-0.1831,-0.1839,-0.1855,-0.1868,-0.1846,-0.192,-0.1935,-0.1868,-0.1806,-0.1831,-0.1778,-0.1558,-0.1428,-0.1419,-0.1249,-0.1227,-0.1226,-0.1182,-0.1179,-0.122,-0.1257,-0.1194,-0.0853,-0.0851,-0.085,-0.0849,0,0,-0.1751,-0.1708,-0.1722,-0.1629,-0.1632,-0.1514,-0.147,-0.1431,-0.1401,-0.1299,-0.1235,-0.1304,-0.1338,-0.1086,-0.1036,-0.0914,-0.1056,-0.0863,-0.1345,-0.1379,-0.1414,-0.1524,-0.147,0,0,0,0,0]},{"header":{"parameterUnit":"m.s-1","parameterCategory":2,"la1":30.2991,"la2":30.254,"lo1":-89.0895,"lo2":-89.0444,"dy":0.0017,"dx":0.0017,"nx":28,"ny":28,"refTime":"2024-04-15T21:00:00:Z","depth":"2","parameterNumber":3,"parameterNumberName":"V-component_of_CURRENTS"},"data":[0,0,0,0,0,0,0,0,0,0,0,0,0,0,0,0,0,0,0,0,0,0,0,0,0,0,0,0,0,0,0,0,0,0,0,0,0,0,0,0,0,0,0,0,0,0,0,0,0,0,0,0,0,0,0,0,0,0,-0.045,-0.0449,0,-0.0355,-0.0354,-0.0353,-0.0285,-0.0284,-0.0283,-0.0283,-0.0135,-0.0132,-0.0129,0,0,0,0,0,0,0,0,0,0,0,0,0,-0.0548,-0.0547,-0.0451,-0.0449,-0.0447,-0.0355,-0.0354,-0.0353,-0.0286,-0.0284,-0.0283,-0.0282,-0.0136,-0.0132,-0.0128,0,0,0,0,0,0,0,0,0,0,0,0,0,-0.0489,-0.0547,-0.0451,-0.0399,-0.0393,-0.0355,-0.0354,-0.0353,-0.0286,-0.0284,-0.0283,-0.0282,-0.0137,-0.0132,-0.0128,-0.0129,0,0,-0.0114,-0.0112,0,0,0,0,0,0,0,0,-0.0493,-0.0486,-0.0408,-0.0402,-0.0396,-0.0326,-0.0334,-0.0274,-0.0286,-0.0332,-0.0282,-0.0281,-0.0192,-0.0183,-0.0175,-0.0122,-0.0116,-0.0114,-0.0111,-0.0109,-0.0108,0,0,0,0,0,0,0,-0.0497,-0.049,-0.0417,-0.0406,-0.0399,-0.0371,-0.0362,-0.0322,-0.0274,-0.0328,-0.0321,-0.0303,-0.0188,-0.018,-0.0171,-0.0114,-0.0114,-0.011,-0.0107,-0.0105,0.0026,0.0026,0,0,0,0,0,0,-0.0502,-0.0494,-0.042,-0.0414,-0.0436,-0.037,-0.036,-0.0354,-0.0275,-0.0261,-0.0305,-0.03,-0.0189,-0.0177,-0.0166,-0.0105,-0.0109,-0.0105,-0.0102,0.0025,0.0026,0.0027,0,0,0,0,0,0,-0.0505,-0.0497,-0.0424,-0.0447,-0.0435,-0.037,-0.0364,-0.0353,-0.033,-0.0257,-0.0243,-0.029,-0.0187,-0.0172,-0.0111,-0.01,-0.0103,-0.0098,0.0024,0.0025,0.0026,-0.0019,0,0,0,0,0,0,-0.0508,-0.0499,-0.0505,-0.0448,-0.0434,-0.0398,-0.0364,-0.0352,-0.0319,-0.0313,-0.0241,-0.0226,-0.0185,-0.0118,-0.0106,-0.0094,-0.0095,0.0023,0.0024,0.0026,-0.0019,-0.002,-0.0021,0,0,0,0,0,-0.0512,-0.0522,-0.0507,-0.0497,-0.0442,-0.0398,-0.0389,-0.034,-0.032,-0.0315,-0.0255,-0.0228,-0.01,-0.0114,-0.01,-0.0087,0.0022,0.0024,0.0026,-0.0018,-0.002,-0.0021,0,0,0,0,0,0,-0.0567,-0.0514,-0.0496,-0.0489,-0.0446,-0.0384,-0.0376,-0.0342,-0.0295,-0.0286,-0.022,-0.0201,-0.0147,-0.0109,-0.0125,-0.0043,-0.0034,-0.003,-0.0072,-0.0073,-0.0074,-0.0095,-0.0091,0,0,0,0,0,-0.0583,-0.058,-0.0518,-0.0515,-0.0494,-0.0437,-0.0416,-0.0381,-0.0327,-0.0305,-0.0246,-0.0186,-0.0134,-0.0097,-0.0051,-0.0007,0.0027,0.0012,0.0011,0.001,0.0003,0.0063,0.0066,0.0032,0.0032,0.0032,0,0,-0.0602,-0.0575,-0.0571,-0.0527,-0.0492,-0.0462,-0.0422,-0.039,-0.036,-0.0296,-0.0242,-0.0192,-0.0124,-0.0073,-0.0045,-0.0036,0.004,0.0012,0.001,0.0004,0.0065,0.0068,0.0071,0.0033,0.0033,0.0033,0,0,-0.0629,-0.0615,-0.0612,-0.0578,-0.0525,-0.0488,-0.0477,-0.041,-0.0377,-0.0328,-0.0268,-0.0209,-0.0134,-0.0075,-0.0039,-0.0018,0.0025,-0.0001,-0.0014,0.0044,0.0047,0.005,0.0099,0.0107,0.0007,0.0007,0.0006,0,-0.0656,-0.064,-0.0604,-0.0585,-0.0558,-0.0499,-0.0479,-0.0441,-0.036,-0.0331,-0.0316,-0.0194,-0.0137,-0.0061,-0.0049,-0.0021,0.0015,-0.0018,0.0041,0.0044,0.0048,0.0098,0.0108,0.0005,0.0005,0.0005,0.0005,0,-0.0665,-0.0653,-0.0648,-0.0605,-0.0577,-0.0555,-0.0489,-0.0456,-0.0415,-0.0367,-0.0296,-0.022,-0.0146,-0.0115,-0.0075,-0.0011,0.0007,0.0024,0.0037,0.0048,0.0101,0.0112,0.0002,0.0002,0.0003,0.0004,0,0,-0.0722,-0.0666,-0.0665,-0.0652,-0.0587,-0.0567,-0.0522,-0.0463,-0.0436,-0.0366,-0.0322,-0.0228,-0.0189,-0.0145,-0.0081,-0.0024,0.0039,0.0009,0.0013,0.0046,0.0164,0.0197,0.0211,0.0066,0.0067,0.0069,0.019,0,-0.0739,-0.0721,-0.0681,-0.0662,-0.0646,-0.0586,-0.0553,-0.0496,-0.0442,-0.0386,-0.0304,-0.0245,-0.0198,-0.0165,-0.01,0.0002,0.0063,0.0004,0.0159,0.0163,0.0181,0.0224,0.0193,0.0301,0.0201,0.0202,0.0204,0,-0.0753,-0.0744,-0.073,-0.0694,-0.0682,-0.0664,-0.0612,-0.0573,-0.0482,-0.0441,-0.0367,-0.0298,-0.0196,-0.017,0.0001,-0.004,0.0055,0.0131,0.0138,0.0189,0.0215,0.0275,0.0323,0.0221,0.022,0.0219,0.0217,0,-0.0811,-0.0776,-0.0775,-0.076,-0.0708,-0.0699,-0.0672,-0.0595,-0.0567,-0.0475,-0.0448,-0.0321,-0.0258,-0.0132,0.0028,0.0017,0.021,0.0217,0.0338,0.0341,0.0356,0.0358,0.0336,0.0336,0.0335,0.0335,0.0335,0,-0.0841,-0.084,-0.0808,-0.081,-0.0822,-0.0762,-0.0755,-0.0708,-0.0637,-0.0597,-0.0487,-0.0424,-0.0246,-0.011,0.0023,0.0216,0.0212,0.0344,0.0381,0.034,0.0339,0.0299,0.0293,0.034,0.0339,0.0338,0.0337,0,-0.0895,-0.0867,-0.0875,-0.085,-0.0849,-0.0862,-0.0829,-0.0815,-0.0742,-0.0686,-0.066,-0.0492,-0.0305,-0.0122,0.0104,0.0214,0.0389,0.0459,0.0397,0.0425,0.0479,0.047,0.0601,0.0603,0.0605,0.0607,0.0608,0,-0.0914,-0.0924,-0.0931,-0.0953,-0.0948,-0.0954,-0.0955,-0.0885,-0.0856,-0.0717,-0.0688,-0.0498,-0.0339,-0.0006,0.0228,0.0473,0.0465,0.0574,0.0552,0.0487,0.051,0.0497,0.0485,0.0556,0.0557,0.0558,0.0558,0,-0.0964,-0.097,-0.0984,-0.1038,-0.1057,-0.1067,-0.1052,-0.104,-0.0932,-0.0853,-0.0693,-0.0554,-0.0224,0.0062,0.0366,0.0495,0.0528,0.0597,0.0567,0.0488,0.0454,0.0472,0.0461,0.0564,0.0564,0.0563,0.0563,0.0563,-0.1005,-0.1041,-0.1069,-0.1117,-0.1145,-0.1154,-0.1159,-0.1102,-0.1029,-0.0873,-0.071,-0.0471,-0.0201,0.0246,0.0467,0.0648,0.0634,0.0668,0.0662,0.0657,0.0624,0.0595,0.0726,0.0726,0.0726,0.0726,0.0727,0,-0.105,-0.1086,-0.1143,-0.1189,-0.123,-0.1222,-0.1204,-0.1176,-0.1079,-0.0877,-0.0686,-0.0344,-0.0014,0.0249,0.0559,0.0744,0.0713,0.0754,0.0681,0.0674,0.0667,0.0632,0.0738,0.0739,0.0739,0.074,0,0,-0.1073,-0.1137,-0.1167,-0.1245,-0.1278,-0.1305,-0.1293,-0.1212,-0.1078,-0.086,-0.0645,-0.0363,-0.002,0.0211,0.0445,0.06,0.0577,0.06,0.0568,0.0444,0.0436,0.0593,0.0527,0,0,0,0,0]}],[{"header":{"parameterUnit":"m.s-1","parameterCategory":2,"la1":30.2991,"la2":30.254,"lo1":-89.0895,"lo2":-89.0444,"dy":0.0017,"dx":0.0017,"nx":28,"ny":28,"refTime":"2024-04-15T21:00:00:Z","depth":"4","parameterNumber":2,"parameterNumberName":"U-component_of_CURRENTS"},"data":[0,0,0,0,0,0,0,0,0,0,0,0,0,0,0,0,0,0,0,0,0,0,0,0,0,0,0,0,0,0,0,0,0,0,0,0,0,0,0,0,0,0,0,0,0,0,0,0,0,0,0,0,0,0,0,0,0,0,-0.1676,-0.1677,0,-0.1729,-0.1729,-0.173,-0.1734,-0.1734,-0.1734,-0.1734,-0.1794,-0.1795,-0.1797,0,0,0,0,0,0,0,0,0,0,0,0,0,-0.1573,-0.1575,-0.1675,-0.1677,-0.1678,-0.1729,-0.1729,-0.173,-0.1734,-0.1734,-0.1734,-0.1734,-0.1793,-0.1795,-0.1797,0,0,0,0,0,0,0,0,0,0,0,0,0,-0.1615,-0.1575,-0.1675,-0.1691,-0.1693,-0.1729,-0.173,-0.173,-0.1734,-0.1734,-0.1734,-0.1734,-0.1793,-0.1795,-0.1797,-0.1813,0,0,-0.1805,-0.1806,0,0,0,0,0,0,0,0,-0.1613,-0.1618,-0.1687,-0.169,-0.1693,-0.173,-0.1716,-0.176,-0.1734,-0.1712,-0.1734,-0.1734,-0.1777,-0.1781,-0.1782,-0.1815,-0.1818,-0.1805,-0.1806,-0.1807,-0.1808,0,0,0,0,0,0,0,-0.161,-0.1616,-0.169,-0.1689,-0.1692,-0.1695,-0.17,-0.1724,-0.1739,-0.1714,-0.1716,-0.1732,-0.1778,-0.178,-0.1784,-0.1819,-0.1805,-0.1807,-0.1808,-0.1809,-0.1931,-0.1933,0,0,0,0,0,0,-0.1617,-0.1614,-0.1689,-0.1693,-0.1659,-0.1697,-0.1703,-0.1713,-0.1739,-0.1745,-0.1732,-0.1732,-0.1775,-0.1781,-0.1786,-0.1851,-0.1807,-0.181,-0.1811,-0.1929,-0.1931,-0.1933,0,0,0,0,0,0,-0.1614,-0.1622,-0.1687,-0.1659,-0.1669,-0.1699,-0.1711,-0.1714,-0.1747,-0.1754,-0.1758,-0.1765,-0.1776,-0.1782,-0.1839,-0.1851,-0.1811,-0.1813,-0.1927,-0.193,-0.1932,-0.1951,0,0,0,0,0,0,-0.1611,-0.1621,-0.1641,-0.166,-0.1671,-0.1718,-0.1712,-0.1716,-0.1758,-0.1759,-0.1784,-0.1787,-0.1776,-0.1836,-0.1841,-0.1854,-0.1815,-0.1925,-0.1928,-0.1932,-0.1949,-0.1954,-0.196,0,0,0,0,0,-0.1607,-0.1628,-0.1641,-0.1652,-0.1694,-0.172,-0.1725,-0.1742,-0.176,-0.1772,-0.1804,-0.1788,-0.186,-0.184,-0.1846,-0.1859,-0.1923,-0.1927,-0.1931,-0.1946,-0.1953,-0.1959,0,0,0,0,0,0,-0.1596,-0.1632,-0.1647,-0.1679,-0.1706,-0.1723,-0.1747,-0.1766,-0.18,-0.1816,-0.1819,-0.1825,-0.1866,-0.1878,-0.1855,-0.1907,-0.1886,-0.1892,-0.1896,-0.1903,-0.1908,-0.192,-0.1817,0,0,0,0,0,-0.1606,-0.1628,-0.1662,-0.169,-0.1709,-0.1738,-0.1759,-0.1775,-0.1806,-0.1821,-0.1845,-0.1873,-0.1883,-0.1908,-0.1917,-0.1965,-0.1958,-0.1978,-0.1983,-0.1987,-0.2004,-0.2009,-0.2015,-0.1946,-0.1946,-0.1946,0,0,-0.1612,-0.1635,-0.165,-0.169,-0.1714,-0.1748,-0.1749,-0.1792,-0.1825,-0.1825,-0.1888,-0.1892,-0.1899,-0.1932,-0.1953,-0.1949,-0.2002,-0.1992,-0.1996,-0.2011,-0.2014,-0.202,-0.2026,-0.1949,-0.1949,-0.1948,0,0,-0.1627,-0.1657,-0.1682,-0.1709,-0.1759,-0.1775,-0.1799,-0.1842,-0.1867,-0.1926,-0.1922,-0.1949,-0.1992,-0.1988,-0.1991,-0.2045,-0.2021,-0.2049,-0.2098,-0.2102,-0.2107,-0.2111,-0.2094,-0.2097,-0.2063,-0.2063,-0.2063,0,-0.1638,-0.1674,-0.1694,-0.1728,-0.1765,-0.1795,-0.1839,-0.1862,-0.1922,-0.1953,-0.1955,-0.2014,-0.2012,-0.2042,-0.2051,-0.2054,-0.2051,-0.2064,-0.2106,-0.211,-0.2115,-0.2097,-0.21,-0.2065,-0.2065,-0.2064,-0.2064,0,-0.1662,-0.171,-0.1731,-0.1782,-0.1817,-0.1861,-0.1903,-0.1949,-0.1991,-0.2014,-0.207,-0.2073,-0.2107,-0.2102,-0.2093,-0.2125,-0.2109,-0.2097,-0.2081,-0.2122,-0.2101,-0.2104,-0.2067,-0.2066,-0.2066,-0.2065,0,0,-0.1644,-0.1733,-0.1745,-0.1785,-0.1858,-0.1883,-0.1952,-0.2013,-0.2055,-0.2106,-0.2157,-0.2173,-0.218,-0.2186,-0.2174,-0.2184,-0.219,-0.2164,-0.2164,-0.2134,-0.219,-0.2029,-0.2016,-0.2186,-0.2188,-0.2188,-0.2156,0,-0.1667,-0.1738,-0.1783,-0.186,-0.1903,-0.1963,-0.2014,-0.2072,-0.2118,-0.2167,-0.2187,-0.2215,-0.2208,-0.2216,-0.223,-0.2196,-0.2202,-0.2199,-0.2169,-0.2168,-0.2008,-0.2016,-0.2192,-0.2158,-0.2159,-0.2159,-0.2159,0,-0.1672,-0.1726,-0.1807,-0.1904,-0.193,-0.1978,-0.207,-0.2118,-0.2187,-0.2224,-0.2273,-0.2279,-0.2305,-0.2282,-0.228,-0.2282,-0.2248,-0.2222,-0.222,-0.2069,-0.2012,-0.2116,-0.2164,-0.2163,-0.2163,-0.2163,-0.2162,0,-0.1626,-0.1738,-0.1805,-0.184,-0.1949,-0.2004,-0.206,-0.214,-0.2182,-0.2253,-0.2283,-0.2325,-0.2333,-0.2326,-0.228,-0.2286,-0.2255,-0.2249,-0.2078,-0.2066,-0.2212,-0.2208,-0.2249,-0.2249,-0.2249,-0.2249,-0.2249,0,-0.1611,-0.1668,-0.1792,-0.1825,-0.1901,-0.1984,-0.2057,-0.212,-0.2198,-0.2226,-0.2299,-0.2305,-0.2347,-0.2332,-0.2295,-0.218,-0.2267,-0.2083,-0.2047,-0.222,-0.2217,-0.2212,-0.2209,-0.2248,-0.2248,-0.2248,-0.2248,0,-0.1537,-0.1626,-0.1705,-0.1838,-0.188,-0.1926,-0.2045,-0.2084,-0.2172,-0.2209,-0.223,-0.2297,-0.226,-0.2269,-0.2233,-0.2167,-0.2089,-0.2028,-0.2201,-0.2176,-0.1898,-0.1896,-0.1838,-0.1832,-0.1827,-0.1823,-0.182,0,-0.1499,-0.1536,-0.1687,-0.1729,-0.1794,-0.188,-0.1932,-0.2051,-0.2081,-0.2168,-0.2162,-0.2179,-0.2193,-0.2012,-0.2048,-0.1964,-0.1939,-0.1907,-0.1918,-0.1885,-0.1857,-0.1863,-0.1868,-0.1811,-0.181,-0.1809,-0.1808,0,-0.1422,-0.1491,-0.1554,-0.1641,-0.1714,-0.1777,-0.1856,-0.1863,-0.1972,-0.2084,-0.2018,-0.1979,-0.1931,-0.1888,-0.1832,-0.178,-0.1935,-0.1854,-0.1865,-0.1875,-0.1852,-0.183,-0.1841,-0.179,-0.1793,-0.1794,-0.1795,0,-0.1355,-0.138,-0.1466,-0.1523,-0.1611,-0.1627,-0.1693,-0.1711,-0.1751,-0.1856,-0.1823,-0.1832,-0.1896,-0.1788,-0.1736,-0.1669,-0.1648,-0.1611,-0.1634,-0.1654,-0.1607,-0.1551,-0.136,0,0,0,0,0,-0.1275,-0.1284,-0.1335,-0.1385,-0.1465,-0.1499,-0.1616,-0.1682,-0.1794,-0.1696,-0.175,-0.1685,-0.16,-0.1615,-0.1501,-0.1655,-0.1662,-0.1521,-0.1635,-0.1693,-0.1713,-0.1674,0,0,0,0,0,0,-0.122,-0.1264,-0.1285,-0.1247,-0.1242,-0.1302,-0.1362,-0.1445,-0.1399,-0.1518,-0.1471,-0.157,-0.1505,-0.1606,-0.1451,-0.1457,-0.1495,-0.1547,-0.1542,-0.1681,-0.17,-0.1716,-0.1683,0,0,0,0,0]},{"header":{"parameterUnit":"m.s-1","parameterCategory":2,"la1":30.2991,"la2":30.254,"lo1":-89.0895,"lo2":-89.0444,"dy":0.0017,"dx":0.0017,"nx":28,"ny":28,"refTime":"2024-04-15T21:00:00:Z","depth":"4","parameterNumber":3,"parameterNumberName":"V-component_of_CURRENTS"},"data":[0,0,0,0,0,0,0,0,0,0,0,0,0,0,0,0,0,0,0,0,0,0,0,0,0,0,0,0,0,0,0,0,0,0,0,0,0,0,0,0,0,0,0,0,0,0,0,0,0,0,0,0,0,0,0,0,0,0,-0.0455,-0.0454,0,-0.0432,-0.0432,-0.0432,-0.0428,-0.0428,-0.0428,-0.0428,-0.0406,-0.0406,-0.0405,0,0,0,0,0,0,0,0,0,0,0,0,0,-0.0464,-0.0465,-0.0455,-0.0454,-0.0454,-0.0432,-0.0432,-0.0432,-0.0428,-0.0428,-0.0428,-0.0428,-0.0406,-0.0406,-0.0405,0,0,0,0,0,0,0,0,0,0,0,0,0,-0.0456,-0.0465,-0.0455,-0.0447,-0.0446,-0.0432,-0.0432,-0.0432,-0.0428,-0.0428,-0.0428,-0.0428,-0.0407,-0.0406,-0.0405,-0.0403,0,0,-0.0403,-0.0403,0,0,0,0,0,0,0,0,-0.0456,-0.0456,-0.0449,-0.0448,-0.0446,-0.043,-0.0427,-0.0421,-0.0428,-0.0438,-0.0428,-0.0428,-0.0413,-0.0411,-0.0412,-0.0402,-0.0401,-0.0403,-0.0402,-0.0402,-0.0402,0,0,0,0,0,0,0,-0.0457,-0.0457,-0.0449,-0.0448,-0.0447,-0.0434,-0.0433,-0.0426,-0.0429,-0.0437,-0.0436,-0.0429,-0.0412,-0.0412,-0.0411,-0.0401,-0.0403,-0.0402,-0.0402,-0.0401,-0.037,-0.0369,0,0,0,0,0,0,-0.0456,-0.0457,-0.045,-0.0448,-0.0448,-0.0434,-0.0433,-0.0438,-0.0429,-0.0426,-0.0429,-0.0429,-0.0414,-0.0412,-0.041,-0.0391,-0.0402,-0.0401,-0.0401,-0.037,-0.037,-0.0369,0,0,0,0,0,0,-0.0456,-0.0456,-0.045,-0.0449,-0.0447,-0.0434,-0.0439,-0.0437,-0.0438,-0.0422,-0.042,-0.0431,-0.0413,-0.0411,-0.0403,-0.039,-0.0401,-0.04,-0.0371,-0.037,-0.037,-0.0362,0,0,0,0,0,0,-0.0457,-0.0456,-0.0465,-0.0449,-0.0447,-0.0445,-0.0439,-0.0437,-0.0432,-0.0432,-0.0423,-0.0421,-0.0413,-0.0404,-0.0402,-0.0389,-0.04,-0.0371,-0.037,-0.037,-0.0363,-0.0361,-0.036,0,0,0,0,0,-0.0457,-0.0469,-0.0466,-0.0465,-0.0458,-0.0445,-0.0444,-0.0435,-0.0432,-0.0435,-0.0426,-0.0421,-0.0398,-0.0403,-0.0401,-0.0388,-0.0372,-0.0371,-0.037,-0.0363,-0.0361,-0.036,0,0,0,0,0,0,-0.0479,-0.0469,-0.0465,-0.0474,-0.0461,-0.0444,-0.0446,-0.0437,-0.0432,-0.0434,-0.042,-0.0417,-0.0408,-0.0399,-0.0406,-0.0377,-0.0382,-0.0381,-0.0378,-0.0376,-0.0375,-0.0342,-0.0399,0,0,0,0,0,-0.0487,-0.0497,-0.0477,-0.0486,-0.0479,-0.0463,-0.0459,-0.045,-0.0439,-0.0438,-0.0427,-0.0415,-0.0403,-0.0391,-0.0387,-0.0369,-0.0332,-0.0358,-0.0356,-0.0355,-0.0327,-0.0254,-0.0243,-0.0367,-0.0367,-0.0367,0,0,-0.0498,-0.0494,-0.05,-0.0491,-0.0482,-0.0469,-0.0462,-0.0456,-0.044,-0.0436,-0.0421,-0.0418,-0.0401,-0.0384,-0.0377,-0.0373,-0.0307,-0.0354,-0.0353,-0.0324,-0.0252,-0.024,-0.0228,-0.0366,-0.0366,-0.0366,0,0,-0.0515,-0.0521,-0.0527,-0.0515,-0.0498,-0.0484,-0.0481,-0.0463,-0.0451,-0.0437,-0.0427,-0.0399,-0.0398,-0.036,-0.0346,-0.0328,-0.0311,-0.0349,-0.0302,-0.0233,-0.0221,-0.0211,-0.0172,-0.0158,-0.0336,-0.0336,-0.0336,0,-0.0529,-0.053,-0.0526,-0.0518,-0.0506,-0.0489,-0.0478,-0.0461,-0.0441,-0.042,-0.0433,-0.0386,-0.0371,-0.0316,-0.031,-0.032,-0.0298,-0.0312,-0.0229,-0.0217,-0.0206,-0.0169,-0.0153,-0.0336,-0.0336,-0.0336,-0.0336,0,-0.0536,-0.0537,-0.0538,-0.0523,-0.0511,-0.0504,-0.0471,-0.0457,-0.0443,-0.0415,-0.0373,-0.0347,-0.031,-0.0305,-0.0301,-0.0222,-0.024,-0.0245,-0.0229,-0.0193,-0.0157,-0.0141,-0.0335,-0.0335,-0.0336,-0.0336,0,0,-0.0571,-0.0549,-0.0551,-0.0542,-0.0513,-0.0505,-0.0472,-0.0429,-0.0404,-0.037,-0.0325,-0.0276,-0.0257,-0.0236,-0.0224,-0.015,-0.0063,-0.0165,-0.0162,-0.0121,0.0064,0.0018,0.0031,-0.0064,-0.0061,-0.0058,0.0049,0,-0.0578,-0.0571,-0.0552,-0.054,-0.0531,-0.0498,-0.047,-0.0428,-0.0394,-0.035,-0.0282,-0.0251,-0.0234,-0.0226,-0.0143,-0.01,-0.0016,-0.0092,0.0018,0.0022,-0.0017,0.0051,-0.0047,0.0061,0.0065,0.0067,0.0069,0,-0.0585,-0.0581,-0.0575,-0.0546,-0.0539,-0.0531,-0.0484,-0.0454,-0.0375,-0.0347,-0.0276,-0.0241,-0.0138,-0.0137,0.0019,-0.0042,0.0028,0.0078,0.0083,0.006,0.0008,0.0023,0.0099,0.0097,0.0095,0.0093,0.0091,0,-0.0613,-0.0594,-0.0594,-0.0586,-0.0552,-0.0543,-0.0524,-0.0459,-0.0432,-0.0348,-0.0324,-0.0203,-0.0162,-0.004,0.0058,0.0039,0.0221,0.0205,0.0244,0.024,0.0243,0.0231,0.0358,0.0358,0.0358,0.0357,0.0357,0,-0.0621,-0.0622,-0.0616,-0.0619,-0.0623,-0.0582,-0.0569,-0.0528,-0.0465,-0.0429,-0.0336,-0.0284,-0.0134,-0.0027,0.0075,0.02,0.024,0.0283,0.0284,0.0237,0.0223,0.0253,0.0239,0.0361,0.0361,0.036,0.0359,0,-0.0645,-0.0638,-0.0647,-0.0637,-0.064,-0.0648,-0.0625,-0.0605,-0.0544,-0.0495,-0.0472,-0.0337,-0.02,-0.0055,0.0136,0.0202,0.0336,0.0377,0.0307,0.0295,0.0305,0.029,0.0442,0.0442,0.0442,0.0442,0.0441,0,-0.065,-0.066,-0.0685,-0.0709,-0.0713,-0.0719,-0.072,-0.066,-0.0633,-0.0527,-0.0502,-0.0363,-0.0265,-0.0024,0.0123,0.0325,0.035,0.0411,0.0393,0.0338,0.0324,0.0309,0.0295,0.0441,0.0441,0.0441,0.0441,0,-0.0668,-0.0691,-0.0707,-0.0765,-0.0789,-0.0797,-0.079,-0.0772,-0.0689,-0.0639,-0.0508,-0.0369,-0.0215,-0.0028,0.0123,0.0268,0.0365,0.0409,0.0411,0.0395,0.0338,0.0321,0.0307,0.044,0.044,0.044,0.044,0,-0.0692,-0.0721,-0.0763,-0.0806,-0.0849,-0.0863,-0.0846,-0.0789,-0.0742,-0.0609,-0.0568,-0.0384,-0.0263,-0.0057,0.0084,0.0216,0.0251,0.0286,0.0295,0.0298,0.0214,0.0119,0.0185,0,0,0,0,0,-0.0706,-0.0743,-0.0796,-0.0844,-0.0891,-0.0909,-0.0885,-0.085,-0.0769,-0.0682,-0.0615,-0.0463,-0.0228,-0.0117,0.0011,0.0058,0.0249,0.0207,0.0288,0.0436,0.0436,0.0359,0,0,0,0,0,0,-0.0716,-0.0773,-0.0799,-0.0869,-0.091,-0.0945,-0.093,-0.0874,-0.08,-0.0703,-0.0569,-0.0464,-0.0232,-0.0312,-0.0001,0.0042,0.0104,0.0331,0.0333,0.0435,0.0436,0.0437,0.0357,0,0,0,0,0]}]]